{"data":{"norad_id":60466,"epoch":"2026-09-22T23:02:43.440864Z","epoch_age_seconds":73634,"freshness":"FRESH","line1":"1 60466U 24148J   26265.96022501  .00011005  00000+0  28094-3 0  9999","line2":"2 60466  34.9901 224.9719 0005007  85.8327 274.2964 15.38655671117492","mean_motion":15.38655671,"eccentricity":0.0005007,"inclination_deg":34.9901,"raan_deg":224.9719,"arg_perigee_deg":85.8327,"mean_anomaly_deg":274.2964,"bstar":0.00028094,"rev_number":11749,"period_min":93.58819046656,"perigee_km":446.66476169492,"apogee_km":453.50254185561,"semimajor_km":6828.2206517753,"source":"CELESTRAK","updated_at":"2026-09-23T09:00:20.620412Z"}}